Location: Mercogliano
(40.9167°N, 14.7333°E)
Time: 14:13:50
(UTC+00:00)

H-2A R/B - Pass Details

Date: 18 September 2020
Orbit: 734 x 836 km, 98.2° (Epoch: 29 October)

Event Time Altitude Azimuth Distance (km) Brightness Sun altitude
Rises 19:12:01 0° 201° (SSW) 3,152 5.1 -24.1°
Reaches altitude 10° 19:14:45 10° 216° (SW) 2,242 4.5 -24.6°
Maximum altitude 19:18:32 22° 267° (W) 1,596 4.2 -25.2°
Drops below altitude 10° 19:22:23 10° 317° (NW) 2,288 5.4 -25.9°
Sets 19:25:13 0° 333° (NNW) 3,235 6.1 -26.4°
